OBJECT A, 59805

Orbit data source: Space-Track

You're viewing an Uncataloged Satellite

Recently launched and/or uncataloged satellites may have evolving metadata. Metadata may include but not limited to: Owner, Maufacturer, Bus, Motor, and Mission.

OBJECT A, 59805 is a satellite owned by 21AT (CN) in SSO that was launched on Mon, 20 May 2024 UTC via a CHANG ZHENG 2D launch vehicle from the Taiyaun Space Center, China (TSC). Unknown objects in Earth's orbit typically refer to objects detected orbiting the Earth but have not yet been identified or cataloged. These objects could be anything from previously untracked satellites, spent rocket stages, debris from satellite collisions, or even natural meteoroids temporarily captured by Earth's gravity.

Loading next visibility...
Identifier
59805, 2024-094A
Orbit
SSO
Country
Flag of CNCN / PRC
Related business
Manufacturer
DFH
Mission
Operational Commercial Imaging
Bus & Motor
BJ3C, Unknown motor
Mass
~1,000 kg wet, ~1,000 kg dry
Launch date (UTC)
2024-05-20 (2 years ago)
Launch vehicle
CHANG ZHENG 2D
Launch site
Taiyaun Space Center, China (TSC)
Object type
Unknown
Shape & HBR
Hex Cyl + 3 Pan, 2.5 m
Radar Cross Section
2.703 m², Large (>1 m²)

Expand to show TLE details & history
Last TLE update: 22 hours ago

TLE from 22 hours ago
0 OBJECT A
1 59805U 24094A   26172.51847559  .00004888  00000-0  25216-3 0  9995
2 59805  97.3864 243.2123 0005370 167.5157 192.6210 15.16785691115827
Epoch: 2026-06-21T12:26Z
TLE epoch observation values (Epoch: 2026-06-21T12:26:36.290Z)
Latitude
-0.0001°
Longitude
146.84351°
Altitude
522.263 km
Speed
7.6 km/s
True Right ascension
16h 12m 50s
True Declination
0° 00' 00"
Sunlit
Object was in full shadow at epoch
Visualization orbit readout
Latitude
Unknown
Longitude
Unknown
Altitude
Unknown
Speed
Unknown
Apparent Right ascension
Unknown
Apparent Declination
Unknown
Sunlit
N/A
Visualization observer readout
Local Sidereal Time
21:31:33
Azimuth
Unknown
Elevation
Unknown
Doppler factor
Unknown
Orbital elements
Apogee altitude
516.232 km
Perigee altitude
508.832 km
Semi-major axis
6,890.669 km
Eccentricity
0.00054
Inclination
97.3864°
RAAN
243.2123°
Arg. of periapsis
167.5157°
True anomaly
192.60756°
Mean anomaly
192.621°
Eccentric anomaly
192.61428°
Mean motion
3.79447 °/min
Orbital period
94.87 mins
BSTAR
0.00025216
Loading maneuver chart data...
Computing Atmospheric mass density...
Loading historical data...
Loading historical data...
Loading historical data...
Loading historical data...
Loading historical data...
Loading historical data...
Loading historical data...
Other satellites on launch #94 in the year 2024 (2024-05-20 UTC)

Documentation

Showing up to 5 results
|